sat.trackr.live / text

‹ back to catalog

STARLINK-34954

NORAD 65275 · 2025-184C

PAYLOAD ACTIVE UNKNOWN

§ Identity

Operator
Country
US
Launch date
2025-08-22
Launch site
AFWTR
Launch vehicle
Mass (kg)
RCS (m²)

Purposes: comms

External: N2YO · Heavens-Above · Gunter

§ Orbital elements

Epoch: 2026-09-20T18:14:08.393568Z

Period
93.90 min
Inclination
97.2834°
Eccentricity
0.0000927
Mean motion
15.33489650 rev/d
Perigee alt
464.8 km
Apogee alt
466.0 km
Semi-major
6,843.5 km
B*
7.0157e-4
RAAN
311.7117°
Arg perigee
97.9947°
Mean anomaly
262.1401°
Rev number
6,076

§ Raw data

STARLINK-349541 65275U 25184C   26263.75981937  .00022674  00000+0  70157-3 0  99962 65275  97.2834 311.7117 0000927  97.9947 262.1401 15.33489650 60763

JSON: /api/v1/satellites/65275 · /tle

For live sub-satellite position, see the globe view (requires WebGL).

§ Visibility from observer

Set your observer location to see the next 7 days of passes ≥ 10°. The values pass through the URL so the page stays shareable.

No JS? Fill the form by hand. The geolocation button needs JavaScript.